Change the Weather History Date:

Tuesday, March 4, 2014

  Actual Average Record
Temperature  
Mean Temperature 46 °F -  
Max Temperature 67 °F 49 °F 67 °F (2014)
Min Temperature 26 °F 22 °F 14 °F (2015)
Degree Days  
Heating Degree Days 18    
Moisture  
Dew Point 25 °F    
Average Humidity 58    
Maximum Humidity 85    
Minimum Humidity 11    
Precipitation  
Precipitation 0.00 in - - ()
Sea Level Pressure  
Sea Level Pressure 29.87 in    
Wind  
Wind Speed 10 mph (West)    
Max Wind Speed 18 mph    
Max Gust Speed 24 mph    
Visibility 10 miles    
Events      
Averages and records for this station are not official NWS values.
T = Trace of Precipitation, MM = Missing Value Source: NWS Daily Summary

Daily Weather History Graph

Daily Weather History Graph

Search for Another Location

Airport or City:

Trip Planner

Search our weather history database for the weather conditions in past years. The results will help you decide how hot, cold, wet, or windy it might be!

Date:

Astronomy

Mar. 04, 2014 Rise Set
Actual Time 7:15 AM CST 6:42 PM CST
Civil Twilight 6:48 AM CST 7:09 PM CST
Nautical Twilight 6:17 AM CST 7:40 PM CST
Astronomical Twilight 5:46 AM CST 8:12 PM CST
Moon 9:03 AM CST (3/4) 10:51 PM CST (3/4)
Length of Visible Light 12h 20m
Length of Day
11h 26m
Waxing Crescent, 15% of the Moon is Illuminated
Mar 4
Waxing Crescent
Mar 8
First Quarter
Mar 16
Full
Mar 23
Last Quarter
Mar 30
New

Hourly Weather History & Observations

Time (CST) Temp. Windchill Dew Point Humidity Pressure Visibility Wind Dir Wind Speed Gust Speed Precip Events Conditions
12:15 AM 32.0 °F 22.5 °F 25.5 °F 77% 29.93 in 10.0 mi WSW 12.7 mph - N/A   Clear
12:35 AM 32.2 °F 22.7 °F 25.7 °F 77% 29.93 in 10.0 mi SW 12.7 mph - N/A   Clear
12:55 AM 32.0 °F 22.5 °F 25.7 °F 78% 29.93 in 10.0 mi WSW 12.7 mph - N/A   Clear
1:15 AM 32.2 °F 23.8 °F 25.9 °F 78% 29.92 in 10.0 mi WSW 10.4 mph - N/A   Clear
1:35 AM 32.2 °F 22.7 °F 26.1 °F 78% 29.92 in 10.0 mi WSW 12.7 mph - N/A   Clear
1:55 AM 31.1 °F 21.9 °F 25.5 °F 80% 29.93 in 10.0 mi WSW 11.5 mph - N/A   Clear
2:15 AM 31.5 °F 22.9 °F 25.7 °F 79% 29.92 in 10.0 mi SW 10.4 mph - N/A   Clear
2:35 AM 31.1 °F 20.9 °F 25.5 °F 80% 29.92 in 10.0 mi SW 13.8 mph - N/A   Clear
2:55 AM 31.8 °F 22.3 °F 25.7 °F 78% 29.91 in 10.0 mi SW 12.7 mph - N/A   Clear
3:15 AM 32.0 °F 24.2 °F 25.5 °F 77% 29.91 in 10.0 mi WSW 9.2 mph - N/A   Clear
3:35 AM 31.1 °F 23.7 °F 25.2 °F 79% 29.91 in 10.0 mi WSW 8.1 mph - N/A   Clear
3:55 AM 30.2 °F 21.3 °F 24.8 °F 80% 29.91 in 10.0 mi WSW 10.4 mph - N/A   Clear
4:15 AM 30.9 °F 23.5 °F 25.0 °F 79% 29.90 in 10.0 mi WSW 8.1 mph - N/A   Clear
4:35 AM 31.1 °F 25.4 °F 25.2 °F 79% 29.89 in 10.0 mi WSW 5.8 mph - N/A   Clear
4:55 AM 30.4 °F 22.2 °F 24.4 °F 79% 29.89 in 10.0 mi West 9.2 mph - N/A   Clear
5:15 AM 27.7 °F 18.8 °F 23.4 °F 84% 29.89 in 10.0 mi WSW 9.2 mph - N/A   Clear
5:35 AM 27.3 °F 18.4 °F 23.4 °F 85% 29.89 in 10.0 mi WSW 9.2 mph - N/A   Clear
5:55 AM 27.3 °F 18.4 °F 23.4 °F 85% 29.89 in 10.0 mi WSW 9.2 mph - N/A   Clear
6:15 AM 27.0 °F 18.7 °F 23.0 °F 85% 29.88 in 10.0 mi WSW 8.1 mph - N/A   Clear
6:35 AM 27.5 °F 19.3 °F 23.2 °F 84% 29.88 in 10.0 mi WSW 8.1 mph - N/A   Clear
6:55 AM 27.0 °F 18.0 °F 23.0 °F 85% 29.89 in 10.0 mi WSW 9.2 mph - N/A   Clear
7:15 AM 26.6 °F 19.1 °F 22.6 °F 85% 29.89 in 10.0 mi WSW 6.9 mph - N/A   Clear
7:35 AM 27.5 °F 19.3 °F 23.0 °F 83% 29.88 in 10.0 mi SW 8.1 mph - N/A   Clear
7:55 AM 30.0 °F 21.7 °F 24.6 °F 80% 29.88 in 10.0 mi SW 9.2 mph - N/A   Clear
8:15 AM 32.2 °F 23.8 °F 25.7 °F 77% 29.88 in 10.0 mi SW 10.4 mph - N/A   Clear
8:35 AM 34.7 °F 28.1 °F 26.1 °F 71% 29.88 in 10.0 mi WSW 8.1 mph - N/A   Clear
8:55 AM 34.5 °F 27.9 °F 26.2 °F 72% 29.88 in 10.0 mi WSW 8.1 mph - N/A   Clear
9:15 AM 37.6 °F 33.1 °F 26.4 °F 64% 29.88 in 10.0 mi WSW 5.8 mph - N/A   Clear
9:35 AM 38.5 °F 32.1 °F 27.0 °F 63% 29.88 in 10.0 mi WSW 9.2 mph - N/A   Clear
9:55 AM 42.3 °F 39.4 °F 28.2 °F 58% 29.88 in 10.0 mi West 4.6 mph - N/A   Clear
10:15 AM 44.1 °F 42.5 °F 28.4 °F 54% 29.89 in 10.0 mi WSW 3.5 mph - N/A   Clear
10:35 AM 45.7 °F 44.4 °F 28.6 °F 51% 29.88 in 10.0 mi SW 3.5 mph - N/A   Clear
10:55 AM 47.3 °F - 28.8 °F 49% 29.88 in 10.0 mi SSW 5.8 mph - N/A   Clear
11:15 AM 50.5 °F - 28.8 °F 43% 29.88 in 10.0 mi SW 3.5 mph - N/A   Clear
11:35 AM 55.4 °F - 26.6 °F 33% 29.87 in 10.0 mi WSW 6.9 mph - N/A   Clear
11:55 AM 57.7 °F - 22.1 °F 25% 29.86 in 10.0 mi SW 6.9 mph - N/A   Clear
12:15 PM 59.9 °F - 20.1 °F 22% 29.84 in 10.0 mi SW 6.9 mph - N/A   Clear
12:35 PM 62.6 °F - 17.4 °F 17% 29.83 in 10.0 mi SSW 9.2 mph - N/A   Clear
12:55 PM 62.1 °F - 17.6 °F 18% 29.83 in 10.0 mi SW 8.1 mph - N/A   Clear
1:15 PM 62.8 °F - 18.3 °F 18% 29.82 in 10.0 mi South 8.1 mph - N/A   Clear
1:35 PM 64.0 °F - 18.9 °F 18% 29.81 in 10.0 mi SW 6.9 mph - N/A   Clear
1:55 PM 64.8 °F - 17.8 °F 16% 29.79 in 10.0 mi SW 4.6 mph - N/A   Clear
2:15 PM 64.9 °F - 17.1 °F 16% 29.79 in 10.0 mi SW 5.8 mph - N/A   Clear
2:35 PM 64.8 °F - 14.2 °F 14% 29.78 in 10.0 mi Calm Calm - N/A   Clear
2:55 PM 65.3 °F - 11.5 °F 12% 29.78 in 10.0 mi Calm Calm - N/A   Clear
3:15 PM 66.4 °F - 10.4 °F 11% 29.78 in 10.0 mi NE 3.5 mph - N/A   Clear
3:35 PM 67.5 °F - 10.0 °F 11% 29.77 in 10.0 mi NE 3.5 mph - N/A   Clear
3:55 PM 66.2 °F - 10.6 °F 11% 29.78 in 10.0 mi ENE 4.6 mph - N/A   Clear
4:15 PM 65.3 °F - 11.5 °F 12% 29.78 in 10.0 mi NE 5.8 mph - N/A   Clear
4:35 PM 64.4 °F - 12.6 °F 13% 29.78 in 10.0 mi NNE 9.2 mph - N/A   Clear
4:55 PM 62.6 °F - 21.7 °F 21% 29.79 in 10.0 mi North 18.4 mph 24.2 mph N/A   Clear
5:15 PM 58.3 °F - 25.7 °F 29% 29.79 in 10.0 mi North 17.3 mph 23.0 mph N/A   Clear
5:35 PM 56.1 °F - 27.5 °F 33% 29.81 in 10.0 mi North 17.3 mph - N/A   Clear
5:55 PM 53.8 °F - 29.7 °F 40% 29.82 in 10.0 mi North 13.8 mph - N/A   Clear
6:15 PM 52.2 °F - 32.0 °F 46% 29.83 in 10.0 mi NNE 11.5 mph - N/A   Clear
6:35 PM 50.2 °F - 32.2 °F 50% 29.84 in 10.0 mi NNE 12.7 mph - N/A   Clear
6:55 PM 48.6 °F - 32.0 °F 53% 29.84 in 10.0 mi NNE 10.4 mph - N/A   Clear
7:15 PM 46.8 °F - 32.0 °F 57% 29.84 in 10.0 mi NNE 6.9 mph - N/A   Clear
7:35 PM 44.1 °F 40.1 °F 31.8 °F 62% 29.85 in 10.0 mi North 6.9 mph - N/A   Clear
7:55 PM 42.3 °F 39.4 °F 31.6 °F 66% 29.85 in 10.0 mi NNE 4.6 mph - N/A   Clear
8:15 PM 41.0 °F 37.1 °F 31.6 °F 69% 29.87 in 10.0 mi NNE 5.8 mph - N/A   Clear
8:35 PM 41.4 °F 36.2 °F 31.3 °F 67% 29.88 in 10.0 mi North 8.1 mph - N/A   Clear
8:55 PM 41.4 °F 35.7 °F 31.8 °F 69% 29.89 in 10.0 mi North 9.2 mph - N/A   Clear
9:15 PM 41.9 °F 36.3 °F 31.8 °F 67% 29.90 in 10.0 mi North 9.2 mph - N/A   Clear
9:35 PM 41.2 °F 34.1 °F 32.0 °F 70% 29.92 in 10.0 mi North 12.7 mph - N/A   Clear
9:55 PM 40.1 °F 33.6 °F 31.8 °F 72% 29.94 in 10.0 mi NNE 10.4 mph - N/A   Clear
10:15 PM 39.0 °F 30.6 °F 31.6 °F 75% 29.96 in 10.0 mi NNE 15.0 mph - N/A   Clear
10:35 PM 37.0 °F 28.5 °F 30.6 °F 77% 29.96 in 10.0 mi NNE 13.8 mph 18.4 mph N/A   Clear
10:55 PM 36.3 °F 28.4 °F 30.0 °F 78% 29.98 in 10.0 mi NNE 11.5 mph 20.7 mph N/A   Clear
11:15 PM 35.1 °F 27.9 °F 29.8 °F 81% 29.99 in 10.0 mi NNE 9.2 mph - N/A   Clear
11:35 PM 34.5 °F 26.7 °F 29.3 °F 81% 30.00 in 10.0 mi NNE 10.4 mph - N/A   Scattered Clouds
11:55 PM 34.2 °F 25.2 °F 29.3 °F 82% 30.01 in 10.0 mi North 12.7 mph - N/A   Mostly Cloudy